Location: ??????????
(48.4699°N, 37.9573°E)
Time: 13:39:13
(UTC+00:00)

Cosmos 1844 Rocket - Pass Details

Date: 20 January 2021
Orbit: 825 x 843 km, 71.0° (Epoch: 26 February)

Event Time Altitude Azimuth Distance (km) Brightness Sun altitude
Rises 16:27:00 0° 209° (SSW) 3,389 6.3 -22.6°
Reaches altitude 10° 16:29:26 10° 211° (SSW) 2,457 5.5 -23.0°
Maximum altitude 16:35:05 81° 298° (WNW) 859 2.7 -23.9°
Enters shadow 16:37:39 34° 22° (NNE) 1,356 3.5 -24.4°
